リニア彗星

265P/LINEAR (2012)

English version
Home page
Updated on February 10, 2013

---------------------------------------------------------------------

・ プロフィール

符号 265P/2012 M1
検出日 2012年6月18日
検出光度 19.3等
検出者 佐藤英貴(東京都)

・ 写真集

・ 軌道要素

Epoch 2012 June 2.0 TT = JDT 2456080.5
T 2012 June 10.75829 TT                                 MPC
q   1.4989369            (2000.0)            P               Q
n   0.11266869     Peri.   32.85481     +0.94854627     -0.30952463
a   4.2455492      Node   344.74084     +0.20693036     +0.76551183
e   0.6469392      Incl.   14.69021     +0.23966602     +0.56407991
P   8.75
From 441 observations 2003 July 30-2012 June 23, mean residual 0".6.

・ 光度変化

        m1 = 15.0 + 5 logΔ + 15.0 log r

---------------------------------------------------------------------

軌道要素はM.P.E.C. 2012-N02に掲載されたものです。
光度グラフはComet for Windowsで作成したものです。

---------------------------------------------------------------------

Copyright(C) Seiichi Yoshida (comet@aerith.net). All rights reserved.